Flag Weather past 2 weeks in Tucson, Arizona, U.S.A.

Now
46 °F

Clear.


Feels Like: 45 °F
Forecast: 37 / 64 °F
Wind: 3 mph from North

Location: Davis-Monthan Air Force Base

Current Time: Nov 24, 2014 at 2:32:51 AM

Latest Report: Nov 24, 2014 at 1:58 AM


Visibility: 10 mi

Pressure: 30.10 "Hg

Humidity: 14%

Dew point: 0 °F

Location of TucsonLocation

Historic Weather in Tucson — Graph

°F

Tucson temperature yesterday

Maximum temperature yesterday: 65 °F (at 12:58 PM)
Minimum temperature yesterday: 43 °F (at 6:58 AM)
Average temperature yesterday: 53 °F

Past Weeks' High & Low Weather Summary

 TemperatureHumidityPressure
High82 °F (Nov 10, 1:58 PM)82% (Nov 15, 5:58 AM)30.19 "Hg (Nov 15, 5:58 AM)
Low40 °F (Nov 17, 5:58 AM)8% (Nov 19, 2:58 PM)29.73 "Hg (Nov 10, 4:58 PM)
Average60 °F39%29.95 "Hg
* Reported Nov 9 12:58 AM — Nov 24 12:58 AM, Tucson, Weather by CustomWeather, © 2014

Note: Actual official high and low records may vary slightly from our data, if they occured in-between our weather recording intervals... More about our weather records

Advertising

Tucson weather history for previous 24 hours

 ConditionsComfort  
Time TempWeatherWind HumidityBarometerVisibility
12:58 AM
Nov 24
50 °FClear.1 mph11%30.08 "Hg10 mi
11:58 PM
Nov 23
53 °FClear.10 mph8%30.08 "Hg10 mi
10:58 PM45 °FClear.5 mph31%30.08 "Hg10 mi
9:58 PM46 °FClear.5 mph41%30.09 "Hg10 mi
8:58 PM51 °FClear.3 mph36%30.08 "Hg10 mi
7:58 PM55 °FClear.7 mph31%30.06 "Hg10 mi
6:58 PM56 °FClear.8 mph28%30.02 "Hg10 mi
5:58 PM59 °FClear.9 mph25%30.00 "Hg10 mi
4:58 PM61 °FSunny.12 mph20%29.98 "Hg10 mi
3:58 PM63 °FSunny.14 mph21%29.98 "Hg10 mi
2:58 PM64 °FSunny.15 mph24%29.96 "Hg10 mi
1:58 PM64 °FSunny.16 mph26%29.96 "Hg10 mi
12:58 PM65 °FSunny.15 mph28%29.98 "Hg10 mi
11:58 AM64 °FSunny.13 mph28%30.01 "Hg10 mi
10:58 AM61 °FSunny.3 mph31%30.03 "Hg10 mi
9:58 AM57 °FSunny.1 mph37%30.03 "Hg10 mi
8:58 AM52 °FSunny.3 mphN/A30.03 "Hg10 mi
7:58 AM46 °FSunny.6 mph58%30.01 "Hg10 mi
6:58 AM43 °FClear.7 mph61%29.98 "Hg10 mi
5:58 AM44 °FClear.3 mph57%29.96 "Hg10 mi
4:58 AM44 °FClear.5 mph55%29.91 "Hg10 mi
3:58 AM46 °FClear.7 mph49%29.92 "Hg10 mi
2:58 AM46 °FClear.10 mph48%29.93 "Hg10 mi
Weather by CustomWeather, © 2014

See weather overviewHow to use our weather pages